DELTA 1 DEB, 10750

Orbit data source: Space-Track

DELTA 1 DEB, 10750 is space debris in SSO originally from a launch on Thu, 29 Jul 1976 UTC launched from the Air Force Western Test Range (AFWTR). Debris objects in space refer to the collection of defunct objects orbiting the Earth. Examples of debris include non-operational satellites, rocket bodies, and fragments generated from explosions, collisions, or faulty payload assembly.

Loading next visibility...
Identifier
10750, 1976-077AX
Orbit
SSO
Country
Flag of USUS
Related business
Manufacturer
Unknown
Mission
Spacecraft
Bus & Motor
Unknown
Mass
Unknown
Launch date (UTC)
1976-07-29 (50 years ago)
Launch vehicle
Unknown
Launch site
Air Force Western Test Range (AFWTR)
Object type
Payload
Rocket body
Debris
Shape & HBR
Unknown shape, 0.1 m
Radar Cross Section
Small (<0.1 m²)

Expand to show TLE details & history
Last TLE update: 16 hours ago

TLE from 16 hours ago
0 DELTA 1 DEB
1 10750U 76077AX  26037.73316925  .00022375  00000-0  14006-1 0  9995
2 10750 101.6699 329.4854 0373580  87.4369 276.9473 13.75266447347697
Epoch: 2026-02-06T17:35Z
TLE epoch observation values (Epoch: 2026-02-06T17:35:45.823Z)
Latitude
-0°
Longitude
-71.32234°
Altitude
960.397 km
Speed
7.383 km/s
True Right ascension
21h 57m 56s
True Declination
0° 00' 00"
Sunlit
Object was in daylight at epoch
Visualization orbit readout
Latitude
Unknown
Longitude
Unknown
Altitude
Unknown
Speed
Unknown
Apparent Right ascension
Unknown
Apparent Declination
Unknown
Sunlit
N/A
Visualization observer readout
Local Sidereal Time
11:31:52
Azimuth
Unknown
Elevation
Unknown
Doppler factor
Unknown
Orbital elements
Apogee altitude
1,252.913 km
Perigee altitude
703.285 km
Semi-major axis
7,356.236 km
Eccentricity
0.03736
Inclination
101.6699°
RAAN
329.4854°
Arg. of periapsis
87.4369°
True anomaly
272.67764°
Mean anomaly
276.9473°
Eccentric anomaly
274.8144°
Mean motion
3.44001 °/min
Orbital period
104.65 mins
BSTAR
0.014006
Loading maneuver chart data...
Computing Atmospheric mass density...
Loading historical data...
Loading historical data...
Loading historical data...
Loading historical data...
Loading historical data...
Loading historical data...
Loading historical data...

Documentation

Showing up to 5 results
|